Time,TemperatureF,DewpointF,PressureIn,WindDirection,WindDirectionDegrees,WindSpeedMPH,WindSpeedGustMPH,Humidity,HourlyPrecipIn,Conditions,Clouds,dailyrainin,SoftwareType,DateUTC
2013-03-16 00:03:00,58.1,31.3,28.71,NNW,346,4.9,5.4,36,0.00,,---,0.00,VWS V14.01,2013-03-16 05:03:00,
2013-03-16 00:08:00,57.9,31.1,28.71,ENE,65,4.0,6.3,36,0.00,,---,0.00,VWS V14.01,2013-03-16 05:08:00,
2013-03-16 00:14:00,57.6,30.8,28.71,ENE,62,0.0,0.0,36,0.00,,---,0.00,VWS V14.01,2013-03-16 05:14:00,
2013-03-16 00:20:00,57.0,31.0,28.71,NNE,20,0.0,0.0,37,0.00,,---,0.00,VWS V14.01,2013-03-16 05:20:00,
2013-03-16 00:25:00,56.5,31.2,28.71,NNE,19,3.6,6.3,38,0.00,,---,0.00,VWS V14.01,2013-03-16 05:25:00,
2013-03-16 00:31:00,56.1,32.2,28.74,NNE,30,8.3,8.3,40,0.00,,---,0.00,VWS V14.01,2013-03-16 05:31:00,
2013-03-16 00:37:00,55.9,32.6,28.74,ENE,63,3.6,5.8,41,0.00,,---,0.00,VWS V14.01,2013-03-16 05:37:00,
2013-03-16 00:42:00,55.4,32.7,28.74,NE,39,5.4,6.3,42,0.00,,---,0.00,VWS V14.01,2013-03-16 05:42:00,
2013-03-16 00:48:00,55.0,33.5,28.74,NE,42,5.4,7.2,44,0.00,,---,0.00,VWS V14.01,2013-03-16 05:48:00,
2013-03-16 00:53:00,54.5,33.6,28.74,East,89,3.1,4.0,45,0.00,,---,0.00,VWS V14.01,2013-03-16 05:53:00,
2013-03-16 00:59:00,54.1,33.3,28.74,South,175,2.7,4.5,45,0.00,,---,0.00,VWS V14.01,2013-03-16 05:59:00,
2013-03-16 01:05:00,53.6,32.8,28.74,South,169,0.0,2.2,45,0.00,,---,0.00,VWS V14.01,2013-03-16 06:05:00,
2013-03-16 01:10:00,53.1,32.8,28.74,NNE,29,6.3,6.3,46,0.00,,---,0.00,VWS V14.01,2013-03-16 06:10:00,
2013-03-16 01:16:00,52.9,33.7,28.74,NE,55,3.6,4.9,48,0.00,,---,0.00,VWS V14.01,2013-03-16 06:16:00,
2013-03-16 01:21:00,52.3,33.2,28.74,North,357,3.6,3.6,48,0.00,,---,0.00,VWS V14.01,2013-03-16 06:21:00,
2013-03-16 01:27:00,52.0,33.4,28.74,NNE,27,3.6,3.6,49,0.00,,---,0.00,VWS V14.01,2013-03-16 06:27:00,
2013-03-16 01:33:00,51.6,34.1,28.77,ENE,64,5.4,6.3,51,0.00,,---,0.00,VWS V14.01,2013-03-16 06:33:00,
2013-03-16 01:38:00,51.1,33.6,28.77,North,4,4.5,4.5,51,0.00,,---,0.00,VWS V14.01,2013-03-16 06:38:00,
2013-03-16 01:43:00,50.9,33.9,28.77,ENE,67,0.0,4.0,52,0.00,,---,0.00,VWS V14.01,2013-03-16 06:43:00,
2013-03-16 01:49:00,50.7,33.8,28.77,NE,44,3.6,5.8,52,0.00,,---,0.00,VWS V14.01,2013-03-16 06:49:00,
2013-03-16 01:55:00,50.4,33.4,28.77,NE,43,4.0,8.3,52,0.00,,---,0.00,VWS V14.01,2013-03-16 06:55:00,
2013-03-16 02:01:00,50.2,33.2,28.77,NNE,22,4.0,4.0,52,0.00,,---,0.00,VWS V14.01,2013-03-16 07:01:00,
2013-03-16 02:06:00,50.0,33.1,28.77,North,11,3.6,4.0,52,0.00,,---,0.00,VWS V14.01,2013-03-16 07:06:00,
2013-03-16 02:12:00,49.8,33.4,28.77,NNE,15,3.1,5.8,53,0.00,,---,0.00,VWS V14.01,2013-03-16 07:12:00,
2013-03-16 02:17:00,49.3,32.9,28.77,NNE,31,3.6,4.0,53,0.00,,---,0.00,VWS V14.01,2013-03-16 07:17:00,
2013-03-16 02:23:00,48.9,32.6,28.77,NE,50,0.0,2.2,53,0.00,,---,0.00,VWS V14.01,2013-03-16 07:23:00,
2013-03-16 02:29:00,48.6,32.2,28.77,NNE,28,0.0,0.0,53,0.00,,---,0.00,VWS V14.01,2013-03-16 07:29:00,
2013-03-16 02:34:00,48.6,32.7,28.79,ENE,69,4.0,5.8,54,0.00,,---,0.00,VWS V14.01,2013-03-16 07:34:00,
2013-03-16 02:40:00,48.4,32.5,28.79,NNE,17,4.0,4.0,54,0.00,,---,0.00,VWS V14.01,2013-03-16 07:40:00,
2013-03-16 02:45:00,48.2,31.9,28.79,NNE,33,3.1,3.1,53,0.00,,---,0.00,VWS V14.01,2013-03-16 07:45:00,
2013-03-16 02:51:00,47.7,31.9,28.79,NNE,22,3.6,5.4,54,0.00,,---,0.00,VWS V14.01,2013-03-16 07:51:00,
2013-03-16 02:57:00,47.3,32.0,28.79,NNE,26,3.6,4.0,55,0.00,,---,0.00,VWS V14.01,2013-03-16 07:57:00,
2013-03-16 03:02:00,47.1,31.8,28.79,NNE,15,2.2,4.5,55,0.00,,---,0.00,VWS V14.01,2013-03-16 08:02:00,
2013-03-16 03:08:00,46.8,31.5,28.79,NE,39,0.0,0.0,55,0.00,,---,0.00,VWS V14.01,2013-03-16 08:08:00,
2013-03-16 03:13:00,46.2,31.0,28.79,NE,36,0.0,0.0,55,0.00,,---,0.00,VWS V14.01,2013-03-16 08:13:00,
2013-03-16 03:18:00,45.9,31.1,28.79,NE,47,0.0,2.7,56,0.00,,---,0.00,VWS V14.01,2013-03-16 08:18:00,
2013-03-16 03:23:00,45.5,31.2,28.79,NE,38,0.0,0.0,57,0.00,,---,0.00,VWS V14.01,2013-03-16 08:23:00,
2013-03-16 03:29:00,45.1,31.3,28.79,East,86,0.0,0.0,58,0.00,,---,0.00,VWS V14.01,2013-03-16 08:29:00,
2013-03-16 03:34:00,44.8,31.8,28.79,NNE,17,3.1,4.0,60,0.00,,---,0.00,VWS V14.01,2013-03-16 08:34:00,
2013-03-16 03:40:00,44.6,31.6,28.79,NE,37,0.0,2.7,60,0.00,,---,0.00,VWS V14.01,2013-03-16 08:40:00,
2013-03-16 03:46:00,44.6,32.0,28.79,East,83,3.6,3.6,61,0.00,,---,0.00,VWS V14.01,2013-03-16 08:46:00,
2013-03-16 03:51:00,44.6,32.4,28.79,NNE,25,8.1,8.1,62,0.00,,---,0.00,VWS V14.01,2013-03-16 08:51:00,
2013-03-16 03:56:00,44.6,32.0,28.79,NNE,26,0.0,8.3,61,0.00,,---,0.00,VWS V14.01,2013-03-16 08:56:00,
2013-03-16 04:02:00,44.4,32.2,28.79,NNE,20,4.9,5.8,62,0.00,,---,0.00,VWS V14.01,2013-03-16 09:02:00,
2013-03-16 04:07:00,44.2,31.7,28.79,NE,41,2.7,5.4,61,0.00,,---,0.00,VWS V14.01,2013-03-16 09:07:00,
2013-03-16 04:12:00,43.9,31.3,28.79,NNE,21,8.3,8.3,61,0.00,,---,0.00,VWS V14.01,2013-03-16 09:12:00,
2013-03-16 04:17:00,43.7,31.5,28.82,NE,48,0.0,6.3,62,0.00,,---,0.00,VWS V14.01,2013-03-16 09:17:00,
2013-03-16 04:23:00,43.3,31.2,28.82,NNE,17,5.4,5.4,62,0.00,,---,0.00,VWS V14.01,2013-03-16 09:23:00,
2013-03-16 04:29:00,43.0,31.3,28.82,SSW,213,2.7,5.8,63,0.00,,---,0.00,VWS V14.01,2013-03-16 09:29:00,
2013-03-16 04:34:00,42.4,31.1,28.82,NE,39,0.0,3.1,64,0.00,,---,0.00,VWS V14.01,2013-03-16 09:34:00,
2013-03-16 04:40:00,41.9,31.0,28.82,NE,36,5.4,5.4,65,0.00,,---,0.00,VWS V14.01,2013-03-16 09:40:00,
2013-03-16 04:45:00,41.5,31.8,28.82,North,353,3.6,7.6,68,0.00,,---,0.00,VWS V14.01,2013-03-16 09:45:00,
2013-03-16 04:51:00,41.2,31.4,28.82,NNW,342,5.8,5.8,68,0.00,,---,0.00,VWS V14.01,2013-03-16 09:51:00,
2013-03-16 04:57:00,41.2,32.5,28.82,NE,34,3.1,6.3,71,0.00,,---,0.00,VWS V14.01,2013-03-16 09:57:00,
2013-03-16 05:02:00,41.2,32.5,28.82,NNE,32,8.1,8.1,71,0.00,,---,0.00,VWS V14.01,2013-03-16 10:02:00,
2013-03-16 05:08:00,41.2,32.5,28.82,NNE,19,4.0,5.8,71,0.00,,---,0.00,VWS V14.01,2013-03-16 10:08:00,
2013-03-16 05:14:00,41.2,32.5,28.82,North,350,0.0,4.0,71,0.00,,---,0.00,VWS V14.01,2013-03-16 10:14:00,
2013-03-16 05:19:00,41.2,32.5,28.85,NNW,344,4.0,4.0,71,0.00,,---,0.00,VWS V14.01,2013-03-16 10:19:00,
2013-03-16 05:25:00,41.4,32.0,28.85,NNE,22,5.4,8.1,69,0.00,,---,0.00,VWS V14.01,2013-03-16 10:25:00,
2013-03-16 05:31:00,41.2,31.1,28.85,East,83,3.6,6.3,67,0.00,,---,0.00,VWS V14.01,2013-03-16 10:31:00,
2013-03-16 05:36:00,41.2,31.1,28.85,East,83,2.7,4.9,67,0.00,,---,0.00,VWS V14.01,2013-03-16 10:36:00,
2013-03-16 05:42:00,41.2,31.1,28.85,ENE,68,3.6,4.9,67,0.00,,---,0.00,VWS V14.01,2013-03-16 10:42:00,
2013-03-16 05:47:00,41.2,31.1,28.88,NNE,18,2.7,6.3,67,0.00,,---,0.00,VWS V14.01,2013-03-16 10:47:00,
2013-03-16 05:53:00,41.2,31.1,28.88,NNE,33,5.4,7.6,67,0.00,,---,0.00,VWS V14.01,2013-03-16 10:53:00,
2013-03-16 05:59:00,41.2,31.1,28.88,NE,43,5.4,5.4,67,0.00,,---,0.00,VWS V14.01,2013-03-16 10:59:00,
2013-03-16 06:05:00,41.2,31.1,28.88,NNW,341,2.7,5.8,67,0.00,,---,0.00,VWS V14.01,2013-03-16 11:05:00,
2013-03-16 06:11:00,41.2,31.1,28.88,NNE,29,5.4,5.8,67,0.00,,---,0.00,VWS V14.01,2013-03-16 11:11:00,
2013-03-16 06:16:00,41.2,31.1,28.91,ENE,70,3.6,4.0,67,0.00,,---,0.00,VWS V14.01,2013-03-16 11:16:00,
2013-03-16 06:22:00,41.2,31.1,28.91,NNE,15,5.8,5.8,67,0.00,,---,0.00,VWS V14.01,2013-03-16 11:22:00,
2013-03-16 06:27:00,41.2,31.1,28.91,ENE,69,5.4,6.3,67,0.00,,---,0.00,VWS V14.01,2013-03-16 11:27:00,
2013-03-16 06:32:00,41.2,31.1,28.91,ESE,118,5.8,8.1,67,0.00,,---,0.00,VWS V14.01,2013-03-16 11:32:00,
2013-03-16 06:37:00,41.2,31.1,28.91,NE,54,2.7,5.4,67,0.00,,---,0.00,VWS V14.01,2013-03-16 11:37:00,
2013-03-16 06:42:00,41.2,31.1,28.91,NNW,341,2.7,6.3,67,0.00,,---,0.00,VWS V14.01,2013-03-16 11:42:00,
2013-03-16 06:47:00,41.2,31.1,28.88,NNE,30,5.4,5.8,67,0.00,,---,0.00,VWS V14.01,2013-03-16 11:47:00,
2013-03-16 06:53:00,41.0,30.9,28.88,NNE,18,4.0,5.4,67,0.00,,---,0.00,VWS V14.01,2013-03-16 11:53:00,
2013-03-16 06:59:00,40.8,31.1,28.88,NNE,25,0.0,0.0,68,0.00,,---,0.00,VWS V14.01,2013-03-16 11:59:00,
2013-03-16 07:04:00,41.0,31.3,28.88,ESE,121,3.6,5.4,68,0.00,,---,0.00,VWS V14.01,2013-03-16 12:04:00,
2013-03-16 07:10:00,41.2,31.4,28.88,NE,52,4.0,5.8,68,0.00,,---,0.00,VWS V14.01,2013-03-16 12:10:00,
2013-03-16 07:15:00,41.2,31.4,28.91,NNE,18,2.7,3.6,68,0.00,,---,0.00,VWS V14.01,2013-03-16 12:15:00,
2013-03-16 07:20:00,41.4,31.2,28.91,ESE,107,5.4,5.4,67,0.00,,---,0.00,VWS V14.01,2013-03-16 12:20:00,
2013-03-16 07:25:00,41.4,31.2,28.91,NE,41,6.7,6.7,67,0.00,,---,0.00,VWS V14.01,2013-03-16 12:25:00,
2013-03-16 07:30:00,41.2,31.1,28.91,North,4,8.7,8.7,67,0.00,,---,0.00,VWS V14.01,2013-03-16 12:30:00,
2013-03-16 07:36:00,41.2,30.7,28.91,WNW,292,2.7,4.0,66,0.00,,---,0.00,VWS V14.01,2013-03-16 12:36:00,
2013-03-16 07:42:00,41.2,30.3,28.91,North,0,9.6,9.6,65,0.00,,---,0.00,VWS V14.01,2013-03-16 12:42:00,
2013-03-16 07:48:00,41.2,29.6,28.91,ENE,74,5.4,7.6,63,0.00,,---,0.00,VWS V14.01,2013-03-16 12:48:00,
2013-03-16 07:53:00,41.4,29.7,28.91,NE,50,3.6,7.6,63,0.00,,---,0.00,VWS V14.01,2013-03-16 12:53:00,
2013-03-16 07:59:00,41.4,29.7,28.91,North,357,5.8,8.7,63,0.00,,---,0.00,VWS V14.01,2013-03-16 12:59:00,
2013-03-16 08:04:00,41.5,29.5,28.91,NNE,14,8.7,8.7,62,0.00,,---,0.00,VWS V14.01,2013-03-16 13:04:00,
2013-03-16 08:10:00,41.5,29.5,28.91,NE,40,2.2,5.4,62,0.00,,---,0.00,VWS V14.01,2013-03-16 13:10:00,
2013-03-16 08:15:00,41.7,29.7,28.91,North,357,3.6,4.0,62,0.00,,---,0.00,VWS V14.01,2013-03-16 13:15:00,
2013-03-16 08:20:00,41.7,29.7,28.91,ENE,66,0.0,2.2,62,0.00,,---,0.00,VWS V14.01,2013-03-16 13:20:00,
2013-03-16 08:25:00,41.7,29.7,28.91,NNE,31,7.6,8.7,62,0.00,,---,0.00,VWS V14.01,2013-03-16 13:25:00,
2013-03-16 08:31:00,41.7,29.7,28.91,North,6,2.7,5.4,62,0.00,,---,0.00,VWS V14.01,2013-03-16 13:31:00,
2013-03-16 08:36:00,41.7,29.7,28.91,NE,55,5.8,6.3,62,0.00,,---,0.00,VWS V14.01,2013-03-16 13:36:00,
2013-03-16 08:41:00,41.7,29.7,28.91,NNE,18,0.0,5.8,62,0.00,,---,0.00,VWS V14.01,2013-03-16 13:41:00,
2013-03-16 08:47:00,41.7,29.3,28.94,ESE,104,3.1,4.0,61,0.00,,---,0.00,VWS V14.01,2013-03-16 13:47:00,
2013-03-16 08:52:00,41.7,29.7,28.94,ENE,58,3.1,3.6,62,0.00,,---,0.00,VWS V14.01,2013-03-16 13:52:00,
2013-03-16 08:57:00,41.7,29.7,28.94,NNE,19,5.8,6.3,62,0.00,,---,0.00,VWS V14.01,2013-03-16 13:57:00,
2013-03-16 09:02:00,41.5,29.5,28.94,ENE,62,0.0,0.0,62,0.00,,---,0.00,VWS V14.01,2013-03-16 14:02:00,
2013-03-16 09:07:00,41.5,29.5,28.94,ENE,64,7.2,8.7,62,0.00,,---,0.00,VWS V14.01,2013-03-16 14:07:00,
2013-03-16 09:13:00,41.2,29.2,28.94,NE,42,4.0,8.7,62,0.00,,---,0.00,VWS V14.01,2013-03-16 14:13:00,
2013-03-16 09:19:00,41.2,29.2,28.94,NE,41,2.2,7.2,62,0.00,,---,0.00,VWS V14.01,2013-03-16 14:19:00,
2013-03-16 09:24:00,41.0,29.4,28.94,NW,322,5.8,8.1,63,0.00,,---,0.00,VWS V14.01,2013-03-16 14:24:00,
2013-03-16 09:29:00,40.8,29.2,28.94,NNE,21,3.1,5.4,63,0.00,,---,0.00,VWS V14.01,2013-03-16 14:29:00,
2013-03-16 09:35:00,40.6,29.0,28.97,North,357,5.4,9.6,63,0.00,,---,0.00,VWS V14.01,2013-03-16 14:35:00,
2013-03-16 09:41:00,40.6,29.0,28.97,NE,34,4.0,5.4,63,0.00,,---,0.00,VWS V14.01,2013-03-16 14:41:00,
2013-03-16 09:47:00,40.6,29.4,28.97,NNE,12,4.9,7.6,64,0.00,,---,0.00,VWS V14.01,2013-03-16 14:47:00,
2013-03-16 09:54:00,40.6,29.0,28.97,NNE,12,5.8,8.3,63,0.00,,---,0.00,VWS V14.01,2013-03-16 14:54:00,
2013-03-16 09:59:00,40.5,29.3,28.97,NNE,33,3.6,10.5,64,0.00,,---,0.00,VWS V14.01,2013-03-16 14:59:00,
2013-03-16 10:04:00,40.3,29.1,28.97,NNE,32,3.6,8.3,64,0.00,,---,0.00,VWS V14.01,2013-03-16 15:04:00,
2013-03-16 10:09:00,40.3,29.1,28.97,NNE,30,0.0,3.6,64,0.00,,---,0.00,VWS V14.01,2013-03-16 15:09:00,
2013-03-16 10:14:00,40.3,29.5,28.97,ENE,75,3.6,7.2,65,0.00,,---,0.00,VWS V14.01,2013-03-16 15:14:00,
2013-03-16 10:20:00,39.9,29.5,28.97,NNE,26,3.1,4.9,66,0.00,,---,0.00,VWS V14.01,2013-03-16 15:20:00,
2013-03-16 10:27:00,39.9,30.2,28.97,North,357,4.9,8.1,68,0.00,,---,0.00,VWS V14.01,2013-03-16 15:27:00,
2013-03-16 10:32:00,40.6,29.4,28.97,NNE,18,0.0,10.5,64,0.00,,---,0.00,VWS V14.01,2013-03-16 15:32:00,
2013-03-16 10:37:00,40.6,27.5,28.97,SE,135,2.7,10.5,59,0.00,,---,0.00,VWS V14.01,2013-03-16 15:37:00,
2013-03-16 10:43:00,41.7,26.8,28.97,NE,55,5.8,7.6,55,0.00,,---,0.00,VWS V14.01,2013-03-16 15:43:00,
2013-03-16 10:49:00,42.3,24.5,28.97,NE,42,4.9,7.6,49,0.00,,---,0.00,VWS V14.01,2013-03-16 15:49:00,
2013-03-16 10:54:00,42.3,24.5,28.97,ENE,57,2.2,6.3,49,0.00,,---,0.00,VWS V14.01,2013-03-16 15:54:00,
2013-03-16 10:59:00,42.1,24.3,28.97,NNE,33,7.6,8.7,49,0.00,,---,0.00,VWS V14.01,2013-03-16 15:59:00,
2013-03-16 11:04:00,42.6,24.8,29.00,NE,54,4.9,6.3,49,0.00,,---,0.00,VWS V14.01,2013-03-16 16:04:00,
2013-03-16 11:09:00,43.3,24.5,29.00,NE,52,3.1,8.1,47,0.00,,---,0.00,VWS V14.01,2013-03-16 16:09:00,
2013-03-16 11:15:00,43.7,23.8,29.00,NNW,344,3.1,8.7,45,0.00,,---,0.00,VWS V14.01,2013-03-16 16:15:00,
2013-03-16 11:20:00,45.0,24.4,28.97,NE,51,4.9,6.3,44,0.00,,---,0.00,VWS V14.01,2013-03-16 16:20:00,
2013-03-16 11:25:00,45.7,23.9,28.97,East,86,4.0,7.6,42,0.00,,---,0.00,VWS V14.01,2013-03-16 16:25:00,
2013-03-16 11:30:00,45.9,23.5,29.00,ENE,57,4.0,4.5,41,0.00,,---,0.00,VWS V14.01,2013-03-16 16:30:00,
2013-03-16 11:36:00,46.4,23.4,29.00,NE,55,8.1,8.7,40,0.00,,---,0.00,VWS V14.01,2013-03-16 16:36:00,
2013-03-16 11:41:00,46.8,23.7,29.00,NNW,341,3.6,5.4,40,0.00,,---,0.00,VWS V14.01,2013-03-16 16:41:00,
2013-03-16 11:46:00,46.6,23.0,29.00,NNE,26,8.1,8.3,39,0.00,,---,0.00,VWS V14.01,2013-03-16 16:46:00,
2013-03-16 11:51:00,45.9,22.9,29.00,NNE,27,6.3,10.5,40,0.00,,---,0.00,VWS V14.01,2013-03-16 16:51:00,
2013-03-16 11:57:00,45.9,23.5,29.00,North,357,2.2,7.2,41,0.00,,---,0.00,VWS V14.01,2013-03-16 16:57:00,
2013-03-16 12:02:00,45.9,22.9,29.00,NNE,31,4.0,8.3,40,0.00,,---,0.00,VWS V14.01,2013-03-16 17:02:00,
2013-03-16 12:08:00,45.7,22.8,29.00,NW,306,5.8,7.6,40,0.00,,---,0.00,VWS V14.01,2013-03-16 17:08:00,
2013-03-16 12:14:00,46.0,23.1,29.00,NE,37,2.7,8.3,40,0.00,,---,0.00,VWS V14.01,2013-03-16 17:14:00,
2013-03-16 12:19:00,46.9,23.9,29.00,North,357,5.4,5.4,40,0.00,,---,0.00,VWS V14.01,2013-03-16 17:19:00,
2013-03-16 12:24:00,47.8,24.1,29.00,NNE,31,8.7,8.7,39,0.00,,---,0.00,VWS V14.01,2013-03-16 17:24:00,
2013-03-16 12:29:00,47.8,23.5,29.00,NE,39,6.7,6.7,38,0.00,,---,0.00,VWS V14.01,2013-03-16 17:29:00,
2013-03-16 12:34:00,48.4,24.0,29.00,NE,54,5.4,6.3,38,0.00,,---,0.00,VWS V14.01,2013-03-16 17:34:00,
2013-03-16 12:40:00,48.7,23.6,29.00,SW,236,3.6,8.1,37,0.00,,---,0.00,VWS V14.01,2013-03-16 17:40:00,
2013-03-16 12:46:00,48.7,23.6,29.00,East,88,2.7,8.1,37,0.00,,---,0.00,VWS V14.01,2013-03-16 17:46:00,
2013-03-16 12:51:00,49.1,24.0,29.00,ENE,78,4.0,6.7,37,0.00,,---,0.00,VWS V14.01,2013-03-16 17:51:00,
2013-03-16 12:56:00,50.4,25.1,29.00,NE,44,4.0,7.2,37,0.00,,---,0.00,VWS V14.01,2013-03-16 17:56:00,
2013-03-16 13:01:00,51.1,25.1,29.00,NNE,18,8.1,8.1,36,0.00,,---,0.00,VWS V14.01,2013-03-16 18:01:00,
2013-03-16 13:07:00,51.1,25.1,29.00,ENE,68,6.3,7.6,36,0.00,,---,0.00,VWS V14.01,2013-03-16 18:07:00,
2013-03-16 13:12:00,51.4,24.7,29.00,East,93,7.6,9.6,35,0.00,,---,0.00,VWS V14.01,2013-03-16 18:12:00,
2013-03-16 13:18:00,50.7,24.1,29.00,NNW,327,4.0,7.6,35,0.00,,---,0.00,VWS V14.01,2013-03-16 18:18:00,
2013-03-16 13:24:00,50.7,23.4,29.00,NNW,343,6.3,6.3,34,0.00,,---,0.00,VWS V14.01,2013-03-16 18:24:00,
2013-03-16 13:30:00,50.2,22.9,29.00,NE,39,6.3,8.1,34,0.00,,---,0.00,VWS V14.01,2013-03-16 18:30:00,
2013-03-16 13:35:00,50.4,23.8,29.00,ESE,122,3.1,7.6,35,0.00,,---,0.00,VWS V14.01,2013-03-16 18:35:00,
2013-03-16 13:40:00,49.6,23.1,29.00,ENE,65,2.7,5.8,35,0.00,,---,0.00,VWS V14.01,2013-03-16 18:40:00,
2013-03-16 13:45:00,50.2,24.3,29.00,NNE,27,6.7,6.7,36,0.00,,---,0.00,VWS V14.01,2013-03-16 18:45:00,
2013-03-16 13:50:00,49.6,23.1,29.00,NE,41,5.8,8.1,35,0.00,,---,0.00,VWS V14.01,2013-03-16 18:50:00,
2013-03-16 13:56:00,49.8,24.0,29.00,ESE,119,2.7,6.3,36,0.00,,---,0.00,VWS V14.01,2013-03-16 18:56:00,
2013-03-16 14:01:00,50.4,23.8,28.97,North,7,5.8,10.1,35,0.00,,---,0.00,VWS V14.01,2013-03-16 19:01:00,
2013-03-16 14:07:00,49.8,23.3,28.97,NNE,17,6.3,6.3,35,0.00,,---,0.00,VWS V14.01,2013-03-16 19:07:00,
2013-03-16 14:13:00,49.3,22.8,28.97,NNE,28,8.7,8.7,35,0.00,,---,0.00,VWS V14.01,2013-03-16 19:13:00,
2013-03-16 14:18:00,49.5,23.6,28.97,NE,48,6.3,6.3,36,0.00,,---,0.00,VWS V14.01,2013-03-16 19:18:00,
2013-03-16 14:23:00,50.5,23.9,28.97,NE,46,7.2,15.0,35,0.00,,---,0.00,VWS V14.01,2013-03-16 19:23:00,
2013-03-16 14:28:00,50.7,23.4,28.97,ENE,58,3.1,4.9,34,0.00,,---,0.00,VWS V14.01,2013-03-16 19:28:00,
2013-03-16 14:33:00,50.9,22.8,28.97,NE,48,5.8,9.6,33,0.00,,---,0.00,VWS V14.01,2013-03-16 19:33:00,
2013-03-16 14:38:00,50.5,22.5,28.97,East,83,6.7,8.1,33,0.00,,---,0.00,VWS V14.01,2013-03-16 19:38:00,
2013-03-16 14:45:00,49.5,22.3,28.97,ENE,69,7.2,8.3,34,0.00,,---,0.00,VWS V14.01,2013-03-16 19:45:00,
2013-03-16 14:50:00,49.6,22.4,28.97,NE,39,4.5,8.7,34,0.00,,---,0.00,VWS V14.01,2013-03-16 19:50:00,
2013-03-16 14:55:00,49.5,23.0,28.97,East,82,3.6,8.1,35,0.00,,---,0.00,VWS V14.01,2013-03-16 19:55:00,
2013-03-16 15:00:00,49.3,22.8,28.97,NE,42,4.9,5.4,35,0.00,,---,0.00,VWS V14.01,2013-03-16 20:00:00,
2013-03-16 15:06:00,49.3,22.8,28.97,NE,40,4.9,7.6,35,0.00,,---,0.00,VWS V14.01,2013-03-16 20:06:00,
2013-03-16 15:11:00,49.3,22.8,28.97,ENE,72,3.6,5.4,35,0.00,,---,0.00,VWS V14.01,2013-03-16 20:11:00,
2013-03-16 15:17:00,49.8,23.3,28.97,NNE,21,3.6,8.7,35,0.00,,---,0.00,VWS V14.01,2013-03-16 20:17:00,
2013-03-16 15:23:00,49.5,23.0,28.97,NNW,336,5.4,6.3,35,0.00,,---,0.00,VWS V14.01,2013-03-16 20:23:00,
2013-03-16 15:28:00,48.7,22.3,28.97,NNE,13,8.3,8.3,35,0.00,,---,0.00,VWS V14.01,2013-03-16 20:28:00,
2013-03-16 15:34:00,48.2,22.5,28.97,NNE,19,4.0,4.0,36,0.00,,---,0.00,VWS V14.01,2013-03-16 20:34:00,
2013-03-16 15:39:00,48.4,22.7,28.97,NE,48,4.0,5.4,36,0.00,,---,0.00,VWS V14.01,2013-03-16 20:39:00,
2013-03-16 15:44:00,48.6,22.8,28.97,ESE,122,2.7,5.8,36,0.00,,---,0.00,VWS V14.01,2013-03-16 20:44:00,
2013-03-16 15:49:00,48.6,22.8,28.97,North,11,5.4,8.1,36,0.00,,---,0.00,VWS V14.01,2013-03-16 20:49:00,
2013-03-16 15:54:00,48.2,22.5,28.97,NNE,25,4.9,8.1,36,0.00,,---,0.00,VWS V14.01,2013-03-16 20:54:00,
2013-03-16 16:00:00,47.8,22.9,28.97,NNE,21,6.3,7.6,37,0.00,,---,0.00,VWS V14.01,2013-03-16 21:00:00,
2013-03-16 16:05:00,47.3,22.4,28.97,ENE,64,6.3,6.3,37,0.00,,---,0.00,VWS V14.01,2013-03-16 21:05:00,
2013-03-16 16:10:00,47.3,22.4,28.97,NNE,19,7.6,7.6,37,0.00,,---,0.00,VWS V14.01,2013-03-16 21:10:00,
2013-03-16 16:16:00,47.1,22.2,28.97,East,86,6.3,6.3,37,0.00,,---,0.00,VWS V14.01,2013-03-16 21:16:00,
2013-03-16 16:22:00,46.8,21.9,28.97,NNE,25,5.4,11.9,37,0.00,,---,0.00,VWS V14.01,2013-03-16 21:22:00,
2013-03-16 16:27:00,46.2,22.0,28.97,WNW,295,5.4,5.4,38,0.00,,---,0.00,VWS V14.01,2013-03-16 21:27:00,
2013-03-16 16:33:00,46.8,22.5,28.97,NNE,23,4.9,4.9,38,0.00,,---,0.00,VWS V14.01,2013-03-16 21:33:00,
2013-03-16 16:38:00,46.9,22.0,28.97,East,101,0.0,3.1,37,0.00,,---,0.00,VWS V14.01,2013-03-16 21:38:00,
2013-03-16 16:45:00,46.9,22.0,28.97,NNE,24,4.9,5.8,37,0.00,,---,0.00,VWS V14.01,2013-03-16 21:45:00,
2013-03-16 16:50:00,46.8,21.9,28.97,NNW,342,3.1,5.4,37,0.00,,---,0.00,VWS V14.01,2013-03-16 21:50:00,
2013-03-16 16:55:00,46.4,21.6,28.97,NNW,333,2.7,4.9,37,0.00,,---,0.00,VWS V14.01,2013-03-16 21:55:00,
2013-03-16 17:01:00,46.2,22.0,28.97,NNW,340,5.4,5.4,38,0.00,,---,0.00,VWS V14.01,2013-03-16 22:01:00,
2013-03-16 17:07:00,46.0,21.9,28.97,North,11,5.4,5.4,38,0.00,,---,0.00,VWS V14.01,2013-03-16 22:07:00,
2013-03-16 17:12:00,45.9,21.7,28.97,West,273,5.4,5.8,38,0.00,,---,0.00,VWS V14.01,2013-03-16 22:12:00,
2013-03-16 17:17:00,45.7,21.5,28.97,North,3,5.4,8.3,38,0.00,,---,0.00,VWS V14.01,2013-03-16 22:17:00,
2013-03-16 17:23:00,45.5,21.4,28.97,SE,129,4.0,5.8,38,0.00,,---,0.00,VWS V14.01,2013-03-16 22:23:00,
2013-03-16 17:28:00,45.9,21.7,28.97,NNE,21,6.3,6.3,38,0.00,,---,0.00,VWS V14.01,2013-03-16 22:28:00,
2013-03-16 17:33:00,45.5,21.4,28.97,North,0,3.6,8.1,38,0.00,,---,0.00,VWS V14.01,2013-03-16 22:33:00,
2013-03-16 17:38:00,44.8,20.7,28.97,NE,39,3.6,5.4,38,0.00,,---,0.00,VWS V14.01,2013-03-16 22:38:00,
2013-03-16 17:43:00,44.4,21.0,28.97,East,98,11.0,11.0,39,0.00,,---,0.00,VWS V14.01,2013-03-16 22:43:00,
2013-03-16 17:49:00,44.2,20.9,28.97,NE,43,5.8,7.2,39,0.00,,---,0.00,VWS V14.01,2013-03-16 22:49:00,
2013-03-16 17:54:00,43.9,20.5,28.97,NNE,15,4.0,5.8,39,0.00,,---,0.00,VWS V14.01,2013-03-16 22:54:00,
2013-03-16 17:59:00,43.7,20.4,28.97,NNW,342,3.1,6.3,39,0.00,,---,0.00,VWS V14.01,2013-03-16 22:59:00,
2013-03-16 18:04:00,43.5,20.2,28.97,North,357,2.7,5.4,39,0.00,,---,0.00,VWS V14.01,2013-03-16 23:04:00,
2013-03-16 18:09:00,43.3,20.6,28.97,North,0,4.0,10.5,40,0.00,,---,0.00,VWS V14.01,2013-03-16 23:09:00,
2013-03-16 18:15:00,43.0,20.3,28.97,NE,39,4.9,6.3,40,0.00,,---,0.00,VWS V14.01,2013-03-16 23:15:00,
2013-03-16 18:20:00,42.6,20.0,28.97,NE,53,3.1,5.8,40,0.00,,---,0.00,VWS V14.01,2013-03-16 23:20:00,
2013-03-16 18:25:00,42.3,19.7,28.97,NNW,344,4.9,7.6,40,0.00,,---,0.00,VWS V14.01,2013-03-16 23:25:00,
2013-03-16 18:31:00,41.7,19.8,28.97,NNE,27,5.8,5.8,41,0.00,,---,0.00,VWS V14.01,2013-03-16 23:31:00,
2013-03-16 18:36:00,41.5,19.6,28.97,North,5,4.9,5.8,41,0.00,,---,0.00,VWS V14.01,2013-03-16 23:36:00,
2013-03-16 18:41:00,41.5,20.2,28.97,NNE,16,8.1,8.1,42,0.00,,---,0.00,VWS V14.01,2013-03-16 23:41:00,
2013-03-16 18:47:00,41.4,20.0,28.97,NE,45,2.7,4.0,42,0.00,,---,0.00,VWS V14.01,2013-03-16 23:47:00,
2013-03-16 18:53:00,41.2,19.9,28.97,NNE,30,0.0,6.3,42,0.00,,---,0.00,VWS V14.01,2013-03-16 23:53:00,
2013-03-16 18:59:00,40.8,19.5,28.97,NNE,30,3.6,6.3,42,0.00,,---,0.00,VWS V14.01,2013-03-16 23:59:00,
2013-03-16 19:05:00,40.5,19.7,28.97,NNE,27,0.0,5.8,43,0.00,,---,0.00,VWS V14.01,2013-03-17 00:05:00,
2013-03-16 19:11:00,40.5,19.7,28.97,NE,48,5.4,5.4,43,0.00,,---,0.00,VWS V14.01,2013-03-17 00:11:00,
2013-03-16 19:16:00,40.3,19.6,28.97,NNE,25,3.1,6.3,43,0.00,,---,0.00,VWS V14.01,2013-03-17 00:16:00,
2013-03-16 19:22:00,39.9,19.2,28.97,NNE,28,3.6,5.8,43,0.00,,---,0.00,VWS V14.01,2013-03-17 00:22:00,
2013-03-16 19:27:00,39.7,19.1,28.97,ENE,61,3.1,5.8,43,0.00,,---,0.00,VWS V14.01,2013-03-17 00:27:00,
2013-03-16 19:33:00,39.6,18.9,28.97,North,0,5.8,7.6,43,0.00,,---,0.00,VWS V14.01,2013-03-17 00:33:00,
2013-03-16 19:38:00,39.4,18.8,28.97,NE,47,5.8,6.7,43,0.00,,---,0.00,VWS V14.01,2013-03-17 00:38:00,
2013-03-16 19:43:00,39.2,19.1,28.97,ENE,59,3.1,4.0,44,0.00,,---,0.00,VWS V14.01,2013-03-17 00:43:00,
2013-03-16 19:49:00,39.2,19.1,29.00,North,357,7.6,8.1,44,0.00,,---,0.00,VWS V14.01,2013-03-17 00:49:00,
2013-03-16 19:54:00,39.2,18.6,29.00,NNE,33,2.7,4.9,43,0.00,,---,0.00,VWS V14.01,2013-03-17 00:54:00,
2013-03-16 20:00:00,39.0,19.0,29.00,NNE,19,5.8,5.8,44,0.00,,---,0.00,VWS V14.01,2013-03-17 01:00:00,
2013-03-16 20:05:00,39.0,19.0,29.00,ENE,64,2.7,4.9,44,0.00,,---,0.00,VWS V14.01,2013-03-17 01:05:00,
2013-03-16 20:11:00,38.8,18.8,29.00,ENE,66,4.9,4.9,44,0.00,,---,0.00,VWS V14.01,2013-03-17 01:11:00,
2013-03-16 20:17:00,38.8,18.8,29.00,North,3,2.7,3.1,44,0.00,,---,0.00,VWS V14.01,2013-03-17 01:17:00,
2013-03-16 20:22:00,38.8,18.8,29.00,North,349,6.3,6.3,44,0.00,,---,0.00,VWS V14.01,2013-03-17 01:22:00,
2013-03-16 20:28:00,38.7,18.6,29.00,East,90,2.7,6.3,44,0.00,,---,0.00,VWS V14.01,2013-03-17 01:28:00,
2013-03-16 20:34:00,38.7,18.6,29.00,North,357,2.7,8.1,44,0.00,,---,0.00,VWS V14.01,2013-03-17 01:34:00,
2013-03-16 20:40:00,38.7,18.6,29.00,NE,35,3.6,5.8,44,0.00,,---,0.00,VWS V14.01,2013-03-17 01:40:00,
2013-03-16 20:45:00,38.7,18.6,29.00,NNW,341,5.8,6.3,44,0.00,,---,0.00,VWS V14.01,2013-03-17 01:45:00,
2013-03-16 20:50:00,38.5,18.5,29.03,North,357,3.1,9.6,44,0.00,,---,0.00,VWS V14.01,2013-03-17 01:50:00,
2013-03-16 20:56:00,38.3,18.3,29.03,NNE,21,8.7,8.7,44,0.00,,---,0.00,VWS V14.01,2013-03-17 01:56:00,
2013-03-16 21:01:00,38.3,18.3,29.03,NE,55,8.7,8.7,44,0.00,,---,0.00,VWS V14.01,2013-03-17 02:01:00,
2013-03-16 21:07:00,38.1,18.7,29.03,North,6,2.2,7.6,45,0.00,,---,0.00,VWS V14.01,2013-03-17 02:07:00,
2013-03-16 21:12:00,38.1,18.1,29.03,NE,54,0.0,4.9,44,0.00,,---,0.00,VWS V14.01,2013-03-17 02:12:00,
2013-03-16 21:17:00,37.9,18.0,29.03,East,79,4.0,6.7,44,0.00,,---,0.00,VWS V14.01,2013-03-17 02:17:00,
2013-03-16 21:22:00,37.8,17.8,29.03,South,191,3.1,7.2,44,0.00,,---,0.00,VWS V14.01,2013-03-17 02:22:00,
2013-03-16 21:28:00,37.6,18.2,29.03,NE,56,4.0,8.1,45,0.00,,---,0.00,VWS V14.01,2013-03-17 02:28:00,
2013-03-16 21:33:00,37.4,18.0,29.03,ENE,70,3.1,7.6,45,0.00,,---,0.00,VWS V14.01,2013-03-17 02:33:00,
2013-03-16 21:40:00,37.4,18.0,29.03,SE,126,3.1,5.8,45,0.00,,---,0.00,VWS V14.01,2013-03-17 02:40:00,
2013-03-16 21:45:00,37.0,18.2,29.03,ENE,59,3.1,8.7,46,0.00,,---,0.00,VWS V14.01,2013-03-17 02:45:00,
2013-03-16 21:50:00,36.9,18.0,29.03,NW,306,3.1,4.0,46,0.00,,---,0.00,VWS V14.01,2013-03-17 02:50:00,
2013-03-16 21:56:00,36.7,18.4,29.03,NNE,16,3.6,6.3,47,0.00,,---,0.00,VWS V14.01,2013-03-17 02:56:00,
2013-03-16 22:02:00,36.5,18.2,29.03,North,2,5.8,8.3,47,0.00,,---,0.00,VWS V14.01,2013-03-17 03:02:00,
2013-03-16 22:08:00,36.3,18.0,29.03,NW,312,2.2,7.6,47,0.00,,---,0.00,VWS V14.01,2013-03-17 03:08:00,
2013-03-16 22:13:00,36.3,18.5,29.03,NNE,30,5.4,5.4,48,0.00,,---,0.00,VWS V14.01,2013-03-17 03:13:00,
2013-03-16 22:18:00,36.3,18.5,29.03,NNE,18,8.3,8.3,48,0.00,,---,0.00,VWS V14.01,2013-03-17 03:18:00,
2013-03-16 22:24:00,36.1,18.4,29.03,North,1,3.6,7.6,48,0.00,,---,0.00,VWS V14.01,2013-03-17 03:24:00,
2013-03-16 22:30:00,36.1,18.4,29.03,North,353,5.4,5.8,48,0.00,,---,0.00,VWS V14.01,2013-03-17 03:30:00,
2013-03-16 22:36:00,36.0,18.7,29.03,NNE,27,4.0,6.3,49,0.00,,---,0.00,VWS V14.01,2013-03-17 03:36:00,
2013-03-16 22:41:00,36.0,18.7,29.03,NW,326,4.0,8.7,49,0.00,,---,0.00,VWS V14.01,2013-03-17 03:41:00,
2013-03-16 22:46:00,35.8,18.5,29.03,North,357,6.3,8.3,49,0.00,,---,0.00,VWS V14.01,2013-03-17 03:46:00,
2013-03-16 22:51:00,35.8,18.5,29.03,NNE,20,5.8,5.8,49,0.00,,---,0.00,VWS V14.01,2013-03-17 03:51:00,
2013-03-16 22:56:00,35.8,18.5,29.03,North,9,3.6,5.8,49,0.00,,---,0.00,VWS V14.01,2013-03-17 03:56:00,
2013-03-16 23:00:00,35.6,18.3,29.03,ENE,64,3.6,10.1,49,0.00,,---,0.00,VWS V14.01,2013-03-17 04:00:00,
2013-03-16 23:02:00,35.6,18.3,29.03,ENE,71,5.4,5.4,49,0.00,,---,0.00,VWS V14.01,2013-03-17 04:02:00,
2013-03-16 23:03:00,35.6,18.3,29.03,NE,54,4.9,8.7,49,0.00,,---,0.00,VWS V14.01,2013-03-17 04:03:00,
2013-03-16 23:06:00,35.6,18.3,29.03,NNE,31,2.7,5.4,49,0.00,,---,0.00,VWS V14.01,2013-03-17 04:06:00,
2013-03-16 23:12:00,35.6,18.3,29.03,NNW,348,5.4,10.5,49,0.00,,---,0.00,VWS V14.01,2013-03-17 04:12:00,
2013-03-16 23:17:00,35.6,18.3,29.03,NE,46,6.3,6.7,49,0.00,,---,0.00,VWS V14.01,2013-03-17 04:17:00,
2013-03-16 23:22:00,35.6,18.3,29.03,North,0,8.7,10.5,49,0.00,,---,0.00,VWS V14.01,2013-03-17 04:22:00,
2013-03-16 23:28:00,35.4,18.6,29.03,NNE,16,4.0,4.9,50,0.00,,---,0.00,VWS V14.01,2013-03-17 04:28:00,
2013-03-16 23:33:00,35.4,18.6,29.03,East,101,6.3,6.3,50,0.00,,---,0.00,VWS V14.01,2013-03-17 04:33:00,
2013-03-16 23:38:00,35.4,18.6,29.03,NW,304,3.6,5.8,50,0.00,,---,0.00,VWS V14.01,2013-03-17 04:38:00,
2013-03-16 23:44:00,35.4,18.6,29.03,NNE,30,0.0,8.1,50,0.00,,---,0.00,VWS V14.01,2013-03-17 04:44:00,
2013-03-16 23:49:00,35.4,18.6,29.03,NNE,17,7.2,8.3,50,0.00,,---,0.00,VWS V14.01,2013-03-17 04:49:00,
2013-03-16 23:55:00,35.2,18.5,29.03,NNE,12,4.0,5.8,50,0.00,,---,0.00,VWS V14.01,2013-03-17 04:55:00,